Погода в Казарке

Россия / Пензенская область     53°35′48″N   45°47′22″E
темп.,
°C
ветер,
м/с
пор.,
м/с
влажн.,
%
обл.,
%
осадки,
мм/ч
давл.,
гПа
погр.,
м
12 августа, пт
пт1200:00+16всв22974 0.0 102348
03:00+14в24950 0.0 102475
06:00+15всв13935 0.0 102493
09:00+21в22655 0.0 1024582
12:00+26ссв12485 0.0 10231364
15:00+27с22414 0.0 10221640
18:00+23с256031 0.0 1022125
21:00+17св247592 0.0 102370
13 августа, сб
сб1300:00+16всв228492 0.0 102318
03:00+14всв118754 0.0 102313
06:00+16всв11798 0.0 102336
09:00+23всв22495 0.0 1022649
12:00+26ссв213466 0.0 10211508
15:00+27св2233100 0.0 10201611
18:00+22св2257100 0.0 102037
21:00+17в2368100 0.0 102047
14 августа, вс
вс1400:00+16в23750 0.0 102041
03:00+15в22830 0.0 102029
06:00+16всв23791 0.0 102186
09:00+23в34535 0.0 1020745
12:00+27в334269 0.0 10191861
15:00+27всв333989 0.0 10182250
18:00+24св365754 0.0 1018199
21:00+20в38673 0.0 1019164
15 августа, пн
пн1500:00+18в310610 0.0 1020188
03:00+15в37630 0.0 1020117
06:00+16в26640 0.0 1021132
09:00+23в35420 0.0 1021688
12:00+26в34350 0.0 10211689
15:00+27всв44360 0.0 10202016
18:00+24всв37530 0.0 1021290
21:00+18всв38670 0.0 1022140
16 августа, вт
вт1600:00+17в37710 0.0 1023138
03:00+16всв37770 0.0 1023124
06:00+16всв39820 0.0 1024228
09:00+23в57500 0.0 1024920
12:00+26всв45391 0.0 10231722
15:00+27всв55375 0.0 10222011
18:00+24всв495052 0.0 1022549
21:00+19всв41263100 0.0 1023291